EZY22J EHAM-EGNT

Flight info

Callsign EZY22J
Flight time 0h 57m
Altitude 34000
Route BERGI L60 SOPEK/N0404F240 L989 BODSO/N0452F340 Y70 BATLI/N0402F240 Y250 RIMTO
Aircraft A320/M-SDE3FGHIRWY/LB1

Departure

Time 2026-04-27 18:30
Airport Amsterdam Airport Schiphol (EHAM)

Arrival

Time 2026-04-27 19:27
Airport Newcastle International Airport (EGNT)
Time Latitude Longitude Altitude Speed Heading
2026-04-27 18:20 52.31494 4.74933 -1 ft 3 kts 266°
2026-04-27 18:20 52.31492 4.74858 -1 ft 9 kts 267°
2026-04-27 18:21 52.31489 4.74765 -1 ft 8 kts 267°
2026-04-27 18:21 52.31485 4.74655 -1 ft 0 kts 266°
2026-04-27 18:21 52.31482 4.74565 -1 ft 14 kts 266°
2026-04-27 18:21 52.31476 4.74407 -1 ft 12 kts 266°
2026-04-27 18:22 52.31514 4.74311 -1 ft 10 kts 339°
2026-04-27 18:22 52.31586 4.74306 -1 ft 11 kts
2026-04-27 18:22 52.31669 4.74313 -1 ft 13 kts 357°
2026-04-27 18:22 52.31765 4.74319 -1 ft 15 kts
2026-04-27 18:23 52.31833 4.74325 -1 ft 1 kts
2026-04-27 18:23 52.31919 4.74334 -1 ft 24 kts
2026-04-27 18:23 52.32022 4.74251 -1 ft 17 kts 289°
2026-04-27 18:23 52.32035 4.74061 -2 ft 16 kts 273°
2026-04-27 18:24 52.32041 4.73885 -1 ft 14 kts 273°
2026-04-27 18:24 52.32046 4.73737 -1 ft 12 kts 273°
2026-04-27 18:24 52.32051 4.73604 -1 ft 11 kts 273°
2026-04-27 18:24 52.32055 4.73483 -1 ft 10 kts 275°
2026-04-27 18:25 52.32089 4.73362 -1 ft 13 kts 310°
2026-04-27 18:25 52.32153 4.73266 -1 ft 12 kts 318°
2026-04-27 18:25 52.32216 4.73173 -1 ft 13 kts 319°
2026-04-27 18:25 52.32308 4.73043 -1 ft 21 kts 319°
2026-04-27 18:26 52.32423 4.72887 -1 ft 22 kts 321°
2026-04-27 18:26 52.32544 4.72717 -1 ft 24 kts 319°
2026-04-27 18:26 52.32671 4.72535 -1 ft 25 kts 314°
2026-04-27 18:26 52.32789 4.72318 -1 ft 26 kts 311°
2026-04-27 18:27 52.32835 4.72040 -1 ft 27 kts 268°
2026-04-27 18:27 52.32935 4.71793 -1 ft 27 kts 312°
2026-04-27 18:27 52.33056 4.71573 -1 ft 24 kts 311°
2026-04-27 18:27 52.33044 4.71375 -1 ft 19 kts 224°
2026-04-27 18:28 52.32948 4.71235 -1 ft 18 kts 221°
2026-04-27 18:28 52.32870 4.71094 -1 ft 16 kts 248°
2026-04-27 18:28 52.32881 4.70925 -2 ft 15 kts 318°
2026-04-27 18:28 52.32967 4.70902 -3 ft 0 kts
2026-04-27 18:29 52.33095 4.70912 -4 ft 59 kts
2026-04-27 18:29 52.33786 4.70978 -1 ft 136 kts
2026-04-27 18:29 52.34877 4.71048 412 ft 161 kts
2026-04-27 18:30 52.35993 4.71057 1346 ft 161 kts
2026-04-27 18:30 52.37189 4.71089 1782 ft 183 kts
2026-04-27 18:30 52.38535 4.71160 2247 ft 200 kts
2026-04-27 18:30 52.39991 4.71337 2625 ft 222 kts
2026-04-27 18:31 52.41622 4.71540 3116 ft 246 kts
2026-04-27 18:31 52.43320 4.70983 3970 ft 255 kts 335°
2026-04-27 18:31 52.44695 4.69307 4961 ft 258 kts 317°
2026-04-27 18:31 52.46013 4.67177 5835 ft 262 kts 316°
2026-04-27 18:32 52.47310 4.65048 6149 ft 262 kts 316°
2026-04-27 18:32 52.48602 4.62914 7011 ft 263 kts 315°
2026-04-27 18:32 52.49908 4.60759 7897 ft 269 kts 314°
2026-04-27 18:32 52.51227 4.58600 8755 ft 273 kts 316°
2026-04-27 18:33 52.52788 4.56703 9667 ft 279 kts 328°
2026-04-27 18:33 52.54467 4.55121 10454 ft 287 kts 329°
2026-04-27 18:33 52.56298 4.53405 10766 ft 311 kts 328°
2026-04-27 18:33 52.58249 4.51575 11100 ft 332 kts 328°
2026-04-27 18:34 52.60277 4.49675 11792 ft 338 kts 328°
2026-04-27 18:34 52.62332 4.47746 12570 ft 342 kts 329°
2026-04-27 18:34 52.64384 4.45815 13316 ft 346 kts 328°
2026-04-27 18:34 52.66484 4.43837 14069 ft 350 kts 328°
2026-04-27 18:35 52.68635 4.41810 14769 ft 354 kts 328°
2026-04-27 18:35 52.70779 4.39783 15445 ft 357 kts 329°
2026-04-27 18:35 52.72944 4.37730 16134 ft 360 kts 328°
2026-04-27 18:35 52.75118 4.35654 16833 ft 362 kts 327°
2026-04-27 18:36 52.77032 4.32970 17432 ft 364 kts 307°
2026-04-27 18:36 52.78257 4.29334 18077 ft 364 kts 290°
2026-04-27 18:36 52.79093 4.25367 18708 ft 367 kts 288°
2026-04-27 18:36 52.79908 4.21350 19295 ft 369 kts 287°
2026-04-27 18:37 52.80729 4.17318 19877 ft 371 kts 287°
2026-04-27 18:37 52.81560 4.13267 20473 ft 373 kts 287°
2026-04-27 18:37 52.82400 4.09205 21078 ft 374 kts 287°
2026-04-27 18:37 52.83250 4.05130 21650 ft 376 kts 287°
2026-04-27 18:38 52.84108 4.01041 22234 ft 377 kts 287°
2026-04-27 18:38 52.84969 3.96926 22791 ft 379 kts 287°
2026-04-27 18:38 52.85836 3.92802 23359 ft 380 kts 287°
2026-04-27 18:38 52.86709 3.88662 23886 ft 382 kts 287°
2026-04-27 18:39 52.87591 3.84505 24196 ft 384 kts 287°
2026-04-27 18:39 52.88481 3.80346 24274 ft 383 kts 287°
2026-04-27 18:39 52.89370 3.76185 24284 ft 383 kts 286°
2026-04-27 18:39 52.90103 3.71951 24339 ft 384 kts 283°
2026-04-27 18:40 52.90773 3.67656 24773 ft 386 kts 282°
2026-04-27 18:40 52.91416 3.63328 25200 ft 388 kts 281°
2026-04-27 18:40 52.92047 3.58971 25601 ft 390 kts 281°
2026-04-27 18:40 52.92677 3.54590 25998 ft 392 kts 281°
2026-04-27 18:41 52.93307 3.50231 26365 ft 396 kts 281°
2026-04-27 18:41 52.93956 3.45777 26724 ft 399 kts 281°
2026-04-27 18:41 52.94613 3.41294 27100 ft 401 kts 281°
2026-04-27 18:41 52.95277 3.36790 27497 ft 403 kts 281°
2026-04-27 18:42 52.95949 3.32256 27884 ft 406 kts 281°
2026-04-27 18:42 52.96403 3.29182 28163 ft 407 kts 281°
2026-04-27 18:42 52.97294 3.23087 28554 ft 413 kts 280°
2026-04-27 18:42 52.97983 3.18450 28903 ft 416 kts 282°
2026-04-27 18:43 52.98778 3.13813 29259 ft 419 kts 283°
2026-04-27 18:43 52.99669 3.09140 29615 ft 421 kts 284°
2026-04-27 18:43 53.00595 3.04514 29962 ft 423 kts 285°
2026-04-27 18:43 53.01532 2.99870 30250 ft 426 kts 285°
2026-04-27 18:44 53.02464 2.95169 30495 ft 429 kts 285°
2026-04-27 18:44 53.03377 2.90433 30737 ft 432 kts 285°
2026-04-27 18:44 53.04277 2.85664 30987 ft 434 kts 285°
2026-04-27 18:44 53.05168 2.80888 31310 ft 433 kts 285°
2026-04-27 18:45 53.06055 2.76100 31665 ft 433 kts 285°
2026-04-27 18:45 53.06940 2.71315 31990 ft 433 kts 285°
2026-04-27 18:45 53.07826 2.66527 32328 ft 433 kts 285°
2026-04-27 18:45 53.08716 2.61736 32664 ft 433 kts 286°
2026-04-27 18:46 53.09601 2.56935 32996 ft 433 kts 285°
2026-04-27 18:46 53.10191 2.51978 33319 ft 433 kts 276°
2026-04-27 18:46 53.10245 2.46967 33611 ft 435 kts 266°
2026-04-27 18:46 53.09783 2.41988 33920 ft 437 kts 258°
2026-04-27 18:47 53.09086 2.37065 34211 ft 438 kts 258°
2026-04-27 18:47 53.08398 2.32145 34285 ft 436 kts 258°
2026-04-27 18:47 53.07036 2.22327 34290 ft 435 kts 258°
2026-04-27 18:48 53.05789 2.12507 34291 ft 433 kts 265°
2026-04-27 18:48 53.05886 2.04181 34291 ft 430 kts 280°
2026-04-27 18:49 53.07091 1.94435 34293 ft 430 kts 283°
2026-04-27 18:49 53.08290 1.84681 34293 ft 431 kts 282°
2026-04-27 18:50 53.09459 1.74908 34293 ft 431 kts 282°
2026-04-27 18:50 53.10624 1.65130 34292 ft 431 kts 282°
2026-04-27 18:51 53.11799 1.55274 34292 ft 431 kts 282°
2026-04-27 18:51 53.12955 1.45482 34272 ft 431 kts 283°
2026-04-27 18:52 53.14098 1.35738 34277 ft 432 kts 283°
2026-04-27 18:53 53.15806 1.20990 34289 ft 432 kts 283°
2026-04-27 18:53 53.16938 1.11148 34289 ft 433 kts 283°
2026-04-27 18:54 53.18074 1.01224 34268 ft 433 kts 283°
2026-04-27 18:54 53.19198 0.91347 34274 ft 434 kts 283°
2026-04-27 18:55 53.20307 0.81510 34287 ft 435 kts 283°
2026-04-27 18:55 53.21425 0.71528 34295 ft 435 kts 283°
2026-04-27 18:56 53.22521 0.61592 34290 ft 435 kts 283°
2026-04-27 18:56 53.23614 0.51652 34294 ft 435 kts 283°
2026-04-27 18:57 53.24696 0.41709 34287 ft 435 kts 284°
2026-04-27 18:57 53.25767 0.31809 34307 ft 436 kts 284°
2026-04-27 18:58 53.26835 0.21822 34301 ft 437 kts 284°
2026-04-27 18:58 53.27895 0.11820 34296 ft 438 kts 284°
2026-04-27 18:59 53.29262 0.01957 34297 ft 432 kts 295°
2026-04-27 18:59 53.31803 -0.07078 34293 ft 428 kts 301°
2026-04-27 19:00 53.34427 -0.16018 34317 ft 427 kts 301°
2026-04-27 19:00 53.37036 -0.24952 34328 ft 427 kts 301°
2026-04-27 19:01 53.39619 -0.33895 34330 ft 426 kts 301°
2026-04-27 19:01 53.42211 -0.42897 34332 ft 426 kts 301°
2026-04-27 19:02 53.44774 -0.51779 34339 ft 426 kts 301°
2026-04-27 19:02 53.47346 -0.60715 34338 ft 425 kts 301°
2026-04-27 19:03 53.49905 -0.69675 34336 ft 426 kts 300°
2026-04-27 19:03 53.52451 -0.78658 34335 ft 426 kts 300°
2026-04-27 19:04 53.54989 -0.87649 34338 ft 426 kts 300°
2026-04-27 19:04 53.57527 -0.96644 34339 ft 426 kts 300°
2026-04-27 19:05 53.60058 -1.05655 34302 ft 426 kts 300°
2026-04-27 19:05 53.61775 -1.15303 34337 ft 434 kts 289°
2026-04-27 19:06 53.63124 -1.25194 34354 ft 432 kts 291°
2026-04-27 19:06 53.65553 -1.34230 34359 ft 414 kts 311°
2026-04-27 19:07 53.69543 -1.40988 34006 ft 403 kts 329°
2026-04-27 19:07 53.71916 -1.43470 33738 ft 401 kts 332°
2026-04-27 19:07 53.74309 -1.45888 33476 ft 400 kts 332°
2026-04-27 19:07 53.76696 -1.48307 32892 ft 401 kts 332°
2026-04-27 19:08 53.79104 -1.50756 31809 ft 407 kts 333°
2026-04-27 19:08 53.81544 -1.53249 30847 ft 410 kts 333°
2026-04-27 19:08 53.83959 -1.55725 30250 ft 403 kts 333°
2026-04-27 19:08 53.86370 -1.58206 29509 ft 396 kts 333°
2026-04-27 19:09 53.88665 -1.60573 28920 ft 387 kts 333°
2026-04-27 19:09 53.90991 -1.62970 28286 ft 380 kts 333°
2026-04-27 19:09 53.93217 -1.65263 27690 ft 373 kts 333°
2026-04-27 19:09 53.95443 -1.67554 27093 ft 367 kts 333°
2026-04-27 19:10 53.97606 -1.69786 26527 ft 361 kts 333°
2026-04-27 19:10 53.99734 -1.71986 25962 ft 356 kts 334°
2026-04-27 19:10 54.01835 -1.74156 25399 ft 351 kts 334°
2026-04-27 19:10 54.03211 -1.75576 25041 ft 347 kts 334°
2026-04-27 19:11 54.05947 -1.78397 24339 ft 341 kts 334°
2026-04-27 19:11 54.07959 -1.80475 23814 ft 337 kts 334°
2026-04-27 19:11 54.09953 -1.82538 23232 ft 334 kts 333°
2026-04-27 19:11 54.11981 -1.84426 22729 ft 329 kts 341°
2026-04-27 19:12 54.14153 -1.85531 22235 ft 326 kts 351°
2026-04-27 19:12 54.16410 -1.85804 21732 ft 326 kts
2026-04-27 19:12 54.18664 -1.85292 21241 ft 328 kts
2026-04-27 19:12 54.20883 -1.84601 20744 ft 328 kts
2026-04-27 19:13 54.23160 -1.83885 20235 ft 329 kts
2026-04-27 19:13 54.25416 -1.83175 19733 ft 330 kts
2026-04-27 19:13 54.27673 -1.82466 19228 ft 330 kts
2026-04-27 19:13 54.29936 -1.81754 18729 ft 331 kts
2026-04-27 19:14 54.32204 -1.81041 18171 ft 331 kts
2026-04-27 19:14 54.34468 -1.80329 17668 ft 330 kts
2026-04-27 19:14 54.36727 -1.79618 17163 ft 329 kts
2026-04-27 19:14 54.38975 -1.78911 16661 ft 328 kts
2026-04-27 19:15 54.41214 -1.78202 16131 ft 327 kts 10°
2026-04-27 19:15 54.43472 -1.77486 15419 ft 332 kts 10°
2026-04-27 19:15 54.45755 -1.76765 14749 ft 336 kts 10°
2026-04-27 19:15 54.48068 -1.76035 14037 ft 340 kts 10°
2026-04-27 19:16 54.50398 -1.75297 13292 ft 341 kts 10°
2026-04-27 19:16 54.51947 -1.74805 12885 ft 341 kts 10°
2026-04-27 19:16 54.55033 -1.73824 11914 ft 332 kts 10°
2026-04-27 19:16 54.57213 -1.73128 11693 ft 305 kts 10°
2026-04-27 19:17 54.59209 -1.72488 11495 ft 282 kts 10°
2026-04-27 19:17 54.61100 -1.71881 10962 ft 273 kts 10°
2026-04-27 19:17 54.62957 -1.71285 10418 ft 268 kts 10°
2026-04-27 19:17 54.64777 -1.70700 10343 ft 267 kts 10°
2026-04-27 19:18 54.66554 -1.70131 10208 ft 250 kts 10°
2026-04-27 19:18 54.68217 -1.69610 9889 ft 238 kts
2026-04-27 19:18 54.69849 -1.69618 9412 ft 233 kts 352°
2026-04-27 19:18 54.71387 -1.70395 9066 ft 232 kts 338°
2026-04-27 19:19 54.72819 -1.71682 8748 ft 231 kts 335°
2026-04-27 19:19 54.74240 -1.72973 8431 ft 230 kts 336°
2026-04-27 19:19 54.75651 -1.74244 8138 ft 228 kts 336°
2026-04-27 19:19 54.77065 -1.75515 7833 ft 226 kts 336°
2026-04-27 19:20 54.78445 -1.76763 7537 ft 225 kts 336°
2026-04-27 19:20 54.79831 -1.78022 7238 ft 224 kts 336°
2026-04-27 19:20 54.81208 -1.79271 6936 ft 223 kts 336°
2026-04-27 19:20 54.82581 -1.80516 6586 ft 223 kts 336°
2026-04-27 19:21 54.83972 -1.81776 6092 ft 226 kts 336°
2026-04-27 19:21 54.84905 -1.82627 5921 ft 222 kts 336°
2026-04-27 19:21 54.86265 -1.83869 5515 ft 223 kts 336°
2026-04-27 19:21 54.87644 -1.85123 5167 ft 224 kts 336°
2026-04-27 19:22 54.89039 -1.86395 4833 ft 221 kts 336°
2026-04-27 19:22 54.90384 -1.87627 4549 ft 217 kts 336°
2026-04-27 19:22 54.91718 -1.88846 4270 ft 216 kts 335°
2026-04-27 19:22 54.93046 -1.90059 3972 ft 215 kts 336°
2026-04-27 19:23 54.94431 -1.90926 3684 ft 202 kts 353°
2026-04-27 19:23 54.95791 -1.90967 3416 ft 193 kts
2026-04-27 19:23 54.97073 -1.90295 2954 ft 194 kts 26°
2026-04-27 19:23 54.98157 -1.88964 2664 ft 189 kts 43°
2026-04-27 19:24 54.98907 -1.87253 2442 ft 179 kts 58°
2026-04-27 19:24 54.99426 -1.85345 2206 ft 170 kts 62°
2026-04-27 19:24 54.99913 -1.83527 1944 ft 157 kts 62°
2026-04-27 19:24 55.00355 -1.81874 1740 ft 145 kts 62°
2026-04-27 19:25 55.00768 -1.80327 1560 ft 133 kts 62°
2026-04-27 19:25 55.01152 -1.78893 1380 ft 128 kts 62°
2026-04-27 19:25 55.01525 -1.77494 1180 ft 127 kts 63°
2026-04-27 19:25 55.01897 -1.76107 1026 ft 126 kts 63°
2026-04-27 19:26 55.02276 -1.74716 844 ft 127 kts 62°
2026-04-27 19:26 55.02639 -1.73324 643 ft 127 kts 64°
2026-04-27 19:26 55.03007 -1.71942 466 ft 125 kts 64°
2026-04-27 19:26 55.03373 -1.70560 317 ft 125 kts 64°
2026-04-27 19:27 55.03721 -1.69254 255 ft 103 kts 65°
2026-04-27 19:27 55.03895 -1.68596 250 ft 22 kts 65°
2026-04-27 19:27 55.03971 -1.68391 248 ft 19 kts 41°
2026-04-27 19:27 55.04069 -1.68261 248 ft 17 kts 36°
2026-04-27 19:28 55.04148 -1.68286 248 ft 12 kts 284°
2026-04-27 19:28 55.04121 -1.68427 248 ft 14 kts 245°
2026-04-27 19:28 55.04069 -1.68619 249 ft 21 kts 245°
2026-04-27 19:28 55.04010 -1.68841 250 ft 15 kts 245°
2026-04-27 19:29 55.03959 -1.69036 252 ft 21 kts 245°
2026-04-27 19:29 55.03898 -1.69268 254 ft 23 kts 244°
2026-04-27 19:29 55.03838 -1.69498 256 ft 17 kts 246°
2026-04-27 19:29 55.03796 -1.69729 258 ft 23 kts 258°
2026-04-27 19:30 55.03773 -1.70005 261 ft 24 kts 266°
2026-04-27 19:30 55.03779 -1.70297 266 ft 19 kts 274°
2026-04-27 19:30 55.03799 -1.70537 267 ft 16 kts 274°
2026-04-27 19:30 55.03804 -1.70658 267 ft 7 kts 273°
2026-04-27 19:31 55.03803 -1.70732 267 ft 6 kts 253°
2026-04-27 19:31 55.03774 -1.70755 267 ft 4 kts 188°
2026-04-27 19:31 55.03746 -1.70759 267 ft 3 kts 184°
2026-04-27 19:31 55.03736 -1.70761 267 ft 0 kts 184°